| time (UTC) | temp F | wind direction | speed knots | gust knots | rain 1hr in | rain 24hr in | rain mn in | humidity % | barometer mb |
| 20260508194525 | 62 | 291 | 0.9 | 7.8 | 0.00 | 0.00 | 0.00 | 52 | 1009.3 |
| 20260508193010 | 63 | 248 | 0.0 | 6.1 | 0.00 | 0.00 | 0.00 | 48 | 1009.5 |
| 20260508191514 | 63 | 207 | 2.6 | 6.1 | 0.00 | 0.00 | 0.00 | 45 | 1009.7 |
| 20260508190014 | 62 | 9 | 3.5 | 7.0 | 0.00 | 0.00 | 0.00 | 49 | 1009.8 |
| 20260508184516 | 62 | 209 | 2.6 | 7.0 | 0.00 | 0.00 | 0.00 | 46 | 1010.0 |
| 20260508183021 | 62 | 220 | 1.7 | 7.0 | 0.00 | 0.00 | 0.00 | 47 | 1010.2 |
| 20260508181513 | 61 | 221 | 1.7 | 7.0 | 0.00 | 0.00 | 0.00 | 52 | 1010.2 |
| 20260508180015 | 60 | 332 | 0.9 | 7.0 | 0.00 | 0.00 | 0.00 | 49 | 1010.5 |
| 20260508174516 | 60 | 261 | 2.6 | 8.7 | 0.00 | 0.00 | 0.00 | 52 | 1010.5 |
| 20260508173017 | 60 | 342 | 3.5 | 7.8 | 0.00 | 0.00 | 0.00 | 54 | 1010.9 |
| 20260508171518 | 60 | 351 | 0.9 | 8.7 | 0.00 | 0.00 | 0.00 | 53 | 1011.0 |
| 20260508170018 | 59 | 61 | 0.9 | 4.3 | 0.00 | 0.00 | 0.00 | 57 | 1011.2 |
| 20260508164517 | 58 | 262 | 0.9 | 2.6 | 0.00 | 0.00 | 0.00 | 57 | 1011.3 |
| 20260508163019 | 58 | 340 | 0.9 | 3.5 | 0.00 | 0.00 | 0.00 | 58 | 1011.5 |
| 20260508161516 | 58 | 222 | 1.7 | 5.2 | 0.00 | 0.00 | 0.00 | 63 | 1011.8 |
| 20260508160013 | 59 | 206 | 0.9 | 7.0 | 0.00 | 0.00 | 0.00 | 63 | 1011.8 |
| 20260508154539 | 58 | 323 | 2.6 | 4.3 | 0.00 | 0.00 | 0.00 | 64 | 1012.0 |
| 20260508153016 | 58 | 208 | 0.9 | 4.3 | 0.00 | 0.00 | 0.00 | 67 | 1011.9 |
| 20260508151521 | 57 | 323 | 3.5 | 4.3 | 0.00 | 0.00 | 0.00 | 66 | 1012.1 |
| 20260508150019 | 57 | 9 | 1.7 | 4.3 | 0.00 | 0.00 | 0.00 | 68 | 1012.1 |
| 20260508144520 | 55 | 120 | 0.0 | 3.5 | 0.00 | 0.00 | 0.00 | 71 | 1012.1 |
| 20260508143022 | 54 | 199 | 0.9 | 2.6 | 0.00 | 0.00 | 0.00 | 72 | 1012.1 |
| 20260508141530 | 54 | 272 | 2.6 | 4.3 | 0.00 | 0.00 | 0.00 | 73 | 1012.2 |
| 20260508140004 | 55 | 241 | 0.0 | 2.6 | 0.00 | 0.01 | 0.00 | 74 | 1012.2 |
| 20260508134506 | 53 | 352 | 0.0 | 4.3 | 0.00 | 0.01 | 0.00 | 75 | 1012.2 |
| 20260508133006 | 52 | 352 | 2.6 | 6.1 | 0.00 | 0.01 | 0.00 | 77 | 1012.2 |
| 20260508131503 | 51 | 13 | 4.3 | 7.0 | 0.00 | 0.01 | 0.00 | 78 | 1012.3 |
| 20260508130008 | 50 | 15 | 2.6 | 7.0 | 0.00 | 0.01 | 0.00 | 81 | 1012.5 |
| 20260508124508 | 48 | 321 | 1.7 | 3.5 | 0.00 | 0.01 | 0.00 | 84 | 1012.7 |
| 20260508123006 | 46 | 249 | 0.9 | 2.6 | 0.00 | 0.01 | 0.00 | 87 | 1012.5 |
| 20260508121514 | 45 | 299 | 0.0 | 2.6 | 0.00 | 0.01 | 0.00 | 89 | 1012.5 |
| 20260508120011 | 45 | 323 | 0.0 | 1.7 | 0.00 | 0.01 | 0.00 | 90 | 1012.4 |
| 20260508114511 | 44 | 342 | 0.0 | 0.9 | 0.00 | 0.01 | 0.00 | 91 | 1012.2 |
| 20260508113018 | 44 | 342 | 0.0 | 1.7 | 0.00 | 0.01 | 0.00 | 92 | 1012.0 |
| 20260508111513 | 43 | 342 | 0.0 | 0.0 | 0.00 | 0.01 | 0.00 | 92 | 1012.0 |
| 20260508110015 | 42 | 342 | 0.0 | 0.0 | 0.00 | 0.01 | 0.00 | 91 | 1011.8 |
| 20260508104516 | 42 | 342 | 0.0 | 1.7 | 0.00 | 0.01 | 0.00 | 92 | 1011.8 |
| 20260508103017 | 42 | 259 | 0.0 | 0.0 | 0.00 | 0.01 | 0.00 | 91 | 1011.7 |
| 20260508101518 | 42 | 259 | 0.0 | 0.0 | 0.00 | 0.01 | 0.00 | 91 | 1011.7 |
| 20260508100019 | 41 | 259 | 0.0 | 0.9 | 0.00 | 0.01 | 0.00 | 91 | 1011.6 |
| 20260508094519 | 41 | 259 | 0.0 | 0.0 | 0.00 | 0.01 | 0.00 | 89 | 1011.7 |
| 20260508093022 | 42 | 259 | 0.0 | 0.0 | 0.00 | 0.01 | 0.00 | 89 | 1011.7 |
| 20260508091520 | 42 | 259 | 0.0 | 0.0 | 0.00 | 0.01 | 0.00 | 87 | 1011.6 |
| 20260508090041 | 43 | 259 | 0.0 | 1.7 | 0.00 | 0.01 | 0.00 | 87 | 1011.5 |
| 20260508084523 | 43 | 259 | 0.0 | 0.9 | 0.00 | 0.01 | 0.00 | 86 | 1011.5 |
| 20260508083025 | 44 | 259 | 0.0 | 1.7 | 0.00 | 0.01 | 0.00 | 85 | 1011.6 |
| 20260508081524 | 44 | 259 | 0.0 | 1.7 | 0.00 | 0.01 | 0.00 | 84 | 1011.7 |
| 20260508080026 | 45 | 257 | 0.0 | 2.6 | 0.00 | 0.01 | 0.00 | 83 | 1011.8 |
| 20260508074526 | 45 | 219 | 0.0 | 1.7 | 0.00 | 0.01 | 0.00 | 82 | 1011.8 |
| 20260508073025 | 45 | 211 | 0.0 | 1.7 | 0.00 | 0.01 | 0.00 | 81 | 1011.9 |
| 20260508071529 | 46 | 225 | 0.0 | 0.9 | 0.00 | 0.01 | 0.00 | 80 | 1011.9 |
| 20260508070026 | 46 | 223 | 0.0 | 1.7 | 0.00 | 0.01 | 0.00 | 79 | 1012.0 |
| 20260508064530 | 46 | 219 | 0.0 | 1.7 | 0.00 | 0.01 | 0.00 | 78 | 1012.0 |
| 20260508063027 | 46 | 236 | 0.9 | 1.7 | 0.00 | 0.01 | 0.00 | 77 | 1012.2 |
| 20260508061512 | 46 | 219 | 0.9 | 1.7 | 0.00 | 0.01 | 0.00 | 76 | 1012.3 |
| 20260508060014 | 47 | 236 | 0.0 | 1.7 | 0.00 | 0.01 | 0.00 | 74 | 1012.3 |
| 20260508054513 | 47 | 259 | 0.9 | 2.6 | 0.00 | 0.01 | 0.00 | 73 | 1012.3 |
| 20260508053018 | 47 | 227 | 0.0 | 3.5 | 0.00 | 0.01 | 0.00 | 72 | 1012.5 |
| 20260508051516 | 47 | 267 | 0.0 | 1.7 | 0.00 | 0.01 | 0.00 | 70 | 1012.5 |
| 20260508050016 | 47 | 260 | 0.0 | 1.7 | 0.00 | 0.01 | 0.00 | 69 | 1012.4 |
| 20260508044519 | 48 | 213 | 0.9 | 2.6 | 0.00 | 0.01 | 0.00 | 67 | 1012.3 |
| 20260508043019 | 48 | 214 | 0.9 | 1.7 | 0.00 | 0.01 | 0.00 | 66 | 1012.3 |
| 20260508041522 | 49 | 230 | 0.9 | 1.7 | 0.00 | 0.01 | 0.00 | 65 | 1012.3 |
| 20260508040022 | 49 | 213 | 0.9 | 3.5 | 0.00 | 0.01 | 0.00 | 64 | 1012.3 |
| 20260508034537 | 50 | 237 | 0.9 | 3.5 | 0.00 | 0.01 | 0.01 | 63 | 1012.5 |
| 20260508033021 | 50 | 227 | 0.0 | 4.3 | 0.00 | 0.01 | 0.01 | 63 | 1012.5 |
| 20260508031526 | 50 | 245 | 0.9 | 2.6 | 0.00 | 0.01 | 0.01 | 63 | 1012.6 |
| 20260508030022 | 50 | 234 | 0.9 | 4.3 | 0.00 | 0.01 | 0.01 | 63 | 1012.7 |
| 20260508024547 | 50 | 225 | 0.0 | 1.7 | 0.00 | 0.01 | 0.01 | 63 | 1012.8 |
| 20260508023026 | 50 | 207 | 0.0 | 1.7 | 0.00 | 0.01 | 0.01 | 63 | 1012.7 |
| 20260508021528 | 50 | 227 | 1.7 | 2.6 | 0.00 | 0.01 | 0.01 | 62 | 1012.6 |
| 20260508020027 | 50 | 217 | 0.9 | 4.3 | 0.00 | 0.01 | 0.01 | 61 | 1012.8 |
| 20260508014527 | 50 | 259 | 0.0 | 6.1 | 0.00 | 0.01 | 0.01 | 61 | 1012.7 |
| 20260508013033 | 50 | 243 | 1.7 | 7.8 | 0.00 | 0.01 | 0.01 | 59 | 1012.5 |
| 20260508011508 | 51 | 248 | 1.7 | 3.5 | 0.00 | 0.01 | 0.01 | 57 | 1012.2 |
| 20260508010012 | 52 | 203 | 1.7 | 13.0 | 0.00 | 0.01 | 0.01 | 54 | 1012.2 |
| 20260508004531 | 53 | 278 | 2.6 | 9.6 | 0.00 | 0.01 | 0.01 | 50 | 1012.1 |
| 20260508003012 | 54 | 269 | 0.9 | 3.5 | 0.00 | 0.01 | 0.01 | 45 | 1012.0 |
| 20260508001528 | 55 | 211 | 1.7 | 3.5 | 0.00 | 0.01 | 0.01 | 42 | 1011.9 |
| 20260508000015 | 55 | 248 | 1.7 | 7.8 | 0.00 | 0.01 | 0.01 | 42 | 1011.8 |
| 20260507234519 | 55 | 304 | 1.7 | 10.4 | 0.00 | 0.01 | 0.01 | 40 | 1011.8 |
| 20260507233019 | 56 | 267 | 3.5 | 7.8 | 0.00 | 0.01 | 0.01 | 39 | 1011.7 |
| 20260507231522 | 56 | 288 | 1.7 | 8.7 | 0.00 | 0.01 | 0.01 | 38 | 1011.8 |
| 20260507230021 | 57 | 287 | 0.9 | 8.7 | 0.00 | 0.01 | 0.01 | 38 | 1011.7 |
| 20260507224520 | 58 | 294 | 1.7 | 7.8 | 0.00 | 0.01 | 0.01 | 36 | 1011.8 |
| 20260507223021 | 57 | 244 | 0.9 | 9.6 | 0.00 | 0.01 | 0.01 | 38 | 1011.9 |
| 20260507221524 | 57 | 343 | 5.2 | 10.4 | 0.00 | 0.01 | 0.01 | 36 | 1011.9 |
| 20260507220026 | 58 | 28 | 6.1 | 13.0 | 0.00 | 0.01 | 0.01 | 35 | 1011.9 |
| 20260507214523 | 58 | 294 | 2.6 | 10.4 | 0.00 | 0.01 | 0.01 | 34 | 1011.9 |
| 20260507213030 | 59 | 325 | 4.3 | 12.2 | 0.00 | 0.01 | 0.01 | 35 | 1011.9 |
| 20260507211505 | 59 | 330 | 4.3 | 13.0 | 0.00 | 0.01 | 0.01 | 35 | 1011.9 |
| 20260507210007 | 58 | 360 | 3.5 | 15.6 | 0.00 | 0.01 | 0.01 | 37 | 1012.1 |
| 20260507204508 | 58 | 360 | 3.5 | 9.6 | 0.00 | 0.01 | 0.01 | 39 | 1012.2 |
| 20260507203010 | 58 | 32 | 5.2 | 15.6 | 0.00 | 0.01 | 0.01 | 39 | 1012.3 |
| 20260507201511 | 57 | 79 | 4.3 | 14.8 | 0.00 | 0.01 | 0.01 | 41 | 1012.3 |
| 20260507200009 | 57 | 16 | 6.1 | 13.0 | 0.00 | 0.01 | 0.01 | 39 | 1012.4 |